{"data":{"norad_id":62799,"epoch":"2026-05-25T03:43:52.436928Z","epoch_age_seconds":65089,"freshness":"FRESH","line1":"1 62799U 25016Q   26145.15546802  .00000103  00000+0  14062-3 0  9995","line2":"2 62799  88.9709  85.9803 0013738 228.7750 131.2218 13.51012505 69345","mean_motion":13.51012505,"eccentricity":0.0013738,"inclination_deg":88.9709,"raan_deg":85.9803,"arg_perigee_deg":228.775,"mean_anomaly_deg":131.2218,"bstar":0.00014062,"rev_number":6934,"period_min":106.58672622723,"perigee_km":1058.3053949879,"apogee_km":1078.7658727167,"semimajor_km":7446.6726338523,"source":"CELESTRAK","updated_at":"2026-05-25T13:38:03.278205Z"}}